User: anonymous   Login
Location: Buckenweiler
(49.0667°N, 10.2500°E)
Time: 15:10:29
(UTC+00:00)
Language:

COSMO-SKYMED 1 - Orbit

View from above orbital plane
View from above orbital plane
View from above satellite
View from above satellite

Ground track
Ground track

The orbit is defined by the following mean orbital elements,

1 31598U          26074.28081691 +.00000000 +00000-0 +43553-3 0 00006
2 31598  97.8883 265.3581 0001615  94.0965 266.0441 14.96587730    00
Epoch (UTC): 15 March 2026 06:44:22
Eccentricity: 0.0001615
inclination: 97.8883°
perigee height: 576 km
apogee height: 579 km
right ascension of ascending node: 265.3581°
argument of perigee: 94.0965°
revolutions per day: 14.96587730
mean anomaly at epoch: 266.0441°

The dashed part of the orbit path shows where the satellite is in the earth's shadow,  

DLR